Regional Weather Roundup
Issued by NWS Albany, NY

Home | Current Version | Previous Version | Graphics & Text | Print | Product List | Glossary Off
Versions: 1 2 3 4 5 6 7 8 9 10 11 12 13 14 15 16 17 18 19 20 21 22 23 24 25 26 27 28 29 30 31 32 33 34 35 36 37 38 39 40 41 42 43 44 45 46 47 48 49 50

000
ASUS41 KALY 242210
RWRALY

NEW YORK STATE HOURLY WEATHER ROUNDUP
NATIONAL WEATHER SERVICE ALBANY NY
600 PM EDT SUN JUL 24 2016

NOTE: "FAIR" INDICATES FEW OR NO CLOUDS BELOW 12,000 FEET WITH NO
SIGNIFICANT WEATHER AND/OR NO OBSTRUCTIONS TO VISIBILITY.

NYZ032-033-038>043-046>054-057>066-NYZ062>081-082-084-242300-
EAST


CITY           SKY/WX    TMP DP  RH WIND       PRES   REMARKS
ALBANY         PTSUNNY   85  57  38 NW3       29.94F
GLENS FALLS    SUNNY     83  63  50 E6        29.94F
POUGHKEEPSIE   SUNNY     92  57  30 NE5       29.92S HX  90
NEWBURGH       MOSUNNY   91  59  33 NW12      29.96R HX  90
MONTGOMERY     MOSUNNY   91  61  36 NW5       29.94R HX  91
WHITE PLAINS   MOSUNNY   84  62  47 S10       29.95R
ISLIP          PTSUNNY   82  63  52 SW9       29.95S
NEW YORK CITY  PTSUNNY   88  64  44 S15       29.92F
CENTRAL PARK   MOSUNNY   86  66  51 VRB3      29.96S
$$

NYZ005>009-017-018-044>046-055-056-242300-
CENTRAL


CITY           SKY/WX    TMP DP  RH WIND       PRES   REMARKS
FULTON         CLOUDY    81  59  47 NE5       29.96F
SYRACUSE       CLOUDY    82  61  48 NE6       29.95S
ROME           CLOUDY    82  61  48 VRB6      29.97S
ELMIRA         PTSUNNY   94  54  25 SW6       29.92F HX  92
BINGHAMTON     CLOUDY    86  53  32 E7        29.99F
MONTICELLO     MOSUNNY   84  61  45 W3        30.02S
$$

NYZ026>034-041>043-087-242300-
NORTH


CITY           SKY/WX    TMP DP  RH WIND       PRES   REMARKS
WATERTOWN      CLOUDY    80  55  42 W6        29.96S
FORT DRUM      NOT AVBL
MASSENA        SUNNY     79  57  46 VRB3      29.98S
SARANAC LAKE   SUNNY     77  48  35 VRB3      30.00S
PLATTSBURGH    SUNNY     75  59  57 VRB7      29.97S
$$

NYZ001>004-010>016-019>021-085-242300-
WEST


CITY           SKY/WX    TMP DP  RH WIND       PRES   REMARKS
NIAGARA FALLS  CLOUDY    86  54  33 S7        29.93F
BUFFALO        CLOUDY    84  53  34 W6        29.95S
DUNKIRK        PTSUNNY   83  59  44 CALM      29.95F
JAMESTOWN      CLOUDY    81  63  54 CALM      30.01F
WELLSVILLE     CLOUDY    85  51  31 W7        30.05S
ROCHESTER      CLOUDY    82  63  52 E8        29.95S
PENN YAN       CLOUDY    85  60  42 VRB5      29.97F
$$

             KEY
       WCI = WIND CHILL INDEX
       VSB = VISIBILITY
       HX  = HEAT INDEX
$$



USA.gov is the U.S. government's official web portal to all federal, state and local government web resources and services.